Cloud_Cover
81 100 100 100 100 100 100 100 90 56 91 86 97 80 10 6 6 16 1 4 1 2 2 0 0 0 0 0 0 0 0 0 0 0 0 0 0 0 0 0 0 0 0
100 100 100 100 100 100 100 100 100 100 5 49 26 84 40 67 5 5 3 0 0 0 4 2 0 0 0 0 0 0 0 0 0 0 0 0 0 0 0 2 0 5 62
100 100 100 100 100 100 100 100 100 100 100 99 57 14 38 41 2 5 3 0 0 0 5 11 1 2 0 0 0 0 0 0 0 0 0 0 0 0 0 0 5 100 100
100 97 74 98 100 100 100 100 100 100 100 100 100 100 100 90 99 44 73 12 0 2 7 2 17 5 0 0 0 0 0 0 0 0 0 0 0 0 3 5 3 92 100
100 100 97 50 100 90 100 92 13 38 23 66 52 100 33 60 100 74 24 0 8 18 24 24 15 3 0 0 0 0 0 0 0 0 0 0 0 0 0 0 0 13 98
100 100 100 100 100 100 100 62 1 2 2 2 15 78 42 100 99 48 30 54 100 93 81 39 23 0 0 0 0 0 5 5 5 0 0 0 0 0 0 0 0 0 10
100 100 95 100 100 100 100 20 5 5 1 20 6 4 9 21 8 0 0 0 29 52 84 100 100 63 29 4 0 0 5 54 40 5 3 5 0 0 0 1 4 4 10
100 70 100 100 96 92 5 13 12 5 4 2 13 4 2 0 0 0 7 27 31 54 41 10 15 42 100 98 86 82 58 26 100 36 43 5 5 5 2 4 86 67 100
100 100 96 100 100 94 100 49 32 9 5 5 15 5 5 0 0 8 20 0 0 0 1 0 0 4 99 100 94 98 100 81 70 100 100 10 5 5 5 4 91 100 97
100 76 93 100 90 100 100 100 76 7 5 5 0 5 5 0 0 0 0 0 0 0 0 0 0 0 0 89 100 100 90 15 57 84 95 100 65 13 5 6 8 74 100
92 42 8 5 6 17 64 100 97 38 35 85 64 7 5 3 4 5 3 5 5 1 5 1 3 0 1 0 8 93 100 85 36 92 100 61 100 100 52 15 11 20 19
98 94 97 100 98 100 88 88 100 97 100 100 96 96 90 50 43 92 79 100 6 5 5 0 0 1 2 4 5 3 6 23 3 52 99 100 100 100 100 80 86 62 28
100 100 100 100 100 100 100 100 100 100 100 100 100 97 73 99 99 100 100 100 94 21 75 5 0 0 0 0 0 0 0 0 0 0 0 70 92 100 100 100 67 42 5
38 59 56 39 2 17 33 89 76 36 18 13 6 0 0 0 0 45 90 97 100 100 35 5 5 0 0 0 0 0 0 0 0 0 0 2 32 94 100 100 100 27 9
5 5 5 5 5 5 5 5 5 4 0 0 0 0 0 0 0 0 0 0 0 2 4 3 0 0 0 0 0 0 0 0 0 0 0 0 0 14 95 100 100 100 98
1 5 11 17 7 5 5 5 5 5 3 0 2 3 5 4 1 0 4 4 6 3 0 1 3 0 0 0 0 0 0 3 0 0 5 0 0 0 5 14 100 100 100
8 5 4 4 5 5 3 2 2 1 0 0 0 0 0 0 0 1 0 0 5 5 9 4 18 4 5 1 0 0 0 0 0 5 2 0 0 0 0 0 8 89 100
11 37 98 97 19 9 3 0 1 0 2 4 0 0 0 0 0 5 75 100 40 81 100 98 98 81 73 5 3 5 0 0 0 0 0 0 0 0 0 0 0 3 75
5 9 17 5 4 3 3 5 29 80 58 5 5 5 3 5 25 92 100 98 100 100 100 79 100 100 100 100 90 8 5 5 1 0 0 0 0 0 0 0 0 0 2
6 3 1 0 0 2 5 5 28 5 5 5 5 5 7 5 5 5 100 100 100 100 100 100 100 100 100 100 100 99 50 34 5 3 0 0 0 0 0 0 0 0 0
1 3 0 5 5 5 5 66 97 37 14 83 97 5 5 5 48 100 100 100 100 100 100 100 100 100 100 100 100 100 100 63 91 98 21 0 0 0 0 0 0 0 0
65 5 4 5 5 5 29 55 11 48 18 5 5 19 91 66 41 18 59 8 66 70 95 62 97 100 100 100 100 100 100 100 100 100 100 8 1 4 2 3 0 0 0
8 47 56 84 76 97 97 77 34 5 6 56 88 56 84 92 100 100 59 5 12 49 67 97 100 100 100 100 100 100 100 100 100 100 100 100 10 5 4 5 3 2 0
5 6 5 59 66 43 13 51 40 5 79 5 5 63 100 84 100 91 95 50 5 5 11 5 11 75 100 100 100 100 100 100 100 100 95 63 98 5 5 3 4 2 1
7 20 97 67 98 100 100 91 19 67 82 92 48 6 11 98 100 20 68 94 6 5 5 5 5 6 44 100 100 100 100 100 100 100 100 100 94 47 30 5 5 6 8
100 100 88 60 92 83 100 99 32 27 3 5 5 5 22 33 5 5 5 5 5 5 5 5 24 12 5 46 81 100 100 100 100 100 100 100 100 100 100 96 5 5 5